Barcelona, Spain

10:11 AM CEST en Septiembre 21, 2018 (GMT +0200)
El Prat

Tiempo Historia de LEBL - Septiembre, 2018

Change the Weather History Date:

Viernes, Septiembre 14, 2018

  Actual Average Record
Temperature  
Temperatura media 76 ° F -  
Temperatura máxima 83 ° F 72 ° F 83 ° F (2018)
Temperatura mínima 69 ° F 59 ° F 59 ° F (2002)
Cooling Degree Days 11    
Growing Degree Days 26 (Base 50)    
Moisture  
Punto de rocío 67 ° F    
Average Humidity 74    
Maximum Humidity 88    
Minimum Humidity 44    
Precipitación  
Precipitación 0.00 pul 0.11 pul - ()
Presión al nivel del mar  
Presión al nivel del mar 30.07 pul    
Viento  
Velocidad del viento 7 mph ()    
Velocidad máxima del viento 14 mph    
Max Gust Speed 23 mph    
Visibilidad 8.7 Millas    
Eventos      
Averages and records for this station are not official NWS values.
T = Trace of Precipitation, MM = Missing Value Source: Averaged Metar Reports

Daily Weather History Graph

Daily Weather History Graph

Search for Another Location

Airport or City:

Astronomía

Sep. 14, 2018 Salida Puesta
Hora real 7:30 AM CEST 8:03 PM CEST
Crepúsculo civil 7:03 AM CEST 8:30 PM CEST
Crepúsculo náutico 6:30 AM CEST 9:03 PM CEST
Crepúsculo astronómico 5:56 AM CEST 9:36 PM CEST
Luna 12:33 PM CEST (9/14) 11:08 PM CEST (9/14)
Horas de luz 13h 27m
Horas de luz
12h 32m
Creciente, 25% of the Moon is Illuminated
Sep 14
Creciente
Sep 17
Cuarto creciente
Sep 25
Luna llena
Oct 2
Cuarto menguante
Oct 9
Nueva

Hourly Weather History & Observations

Hora (CEST) Temp. Índice de calor Punto de rocío Humedad Presión Visibilidad Wind Dir Velocidad del viento Velocidad de ráfagas Precip Eventos Condiciones
12:00 AM 73.4 ° F - 69.8 ° F 88% 30.06 pul 6.2 mi OSO 8.1 mph - N/A   Parcialmente nublado
12:30 AM 75.2 ° F - 69.8 ° F 83% 30.06 pul 6.2 mi OSO 8.1 mph - N/A   Parcialmente nublado
1:00 AM 75 ° F - 68 ° F 74% 30.06 pul 12 mi Oeste 8.1 mph - -  
1:00 AM 75.2 ° F - 69.8 ° F 83% 30.04 pul 6.2 mi OSO 10.4 mph - N/A   Parcialmente nublado
1:30 AM 73.4 ° F - 69.8 ° F 88% 30.04 pul 6.2 mi OSO 5.8 mph - N/A   Parcialmente nublado
2:00 AM 74 ° F - 68 ° F 76% 30.06 pul 14 mi Oeste 5.8 mph - -   Despejado
2:00 AM 75.2 ° F - 68.0 ° F 78% 30.04 pul - ONO 5.8 mph 18.4 mph N/A   Despejado
2:30 AM 73.4 ° F - 69.8 ° F 88% 30.04 pul - ONO 4.6 mph - N/A   Despejado
3:00 AM 74 ° F - 69 ° F 79% 30.06 pul 12 mi Oeste 4.6 mph - -  
3:00 AM 73.4 ° F - 69.8 ° F 88% 30.04 pul - ONO 4.6 mph - N/A   Despejado
3:30 AM 71.6 ° F - 68.0 ° F 88% 30.04 pul - NO 3.5 mph - N/A   Despejado
4:00 AM 72 ° F - 67 ° F 81% 30.05 pul 6 mi Norte 4.6 mph - -  
4:00 AM 71.6 ° F - 68.0 ° F 88% 30.04 pul - NO 4.6 mph - N/A   Despejado
4:30 AM 71.6 ° F - 68.0 ° F 88% 30.04 pul - Variable 2.3 mph - N/A   Despejado
5:00 AM 72 ° F - 67 ° F 80% 30.05 pul 7 mi Norte 4.6 mph - -   Nubes dispersas
5:00 AM 71.6 ° F - 68.0 ° F 88% 30.04 pul - NNO 3.5 mph - N/A   Despejado
5:30 AM 71.6 ° F - 68.0 ° F 88% 30.04 pul - NNO 3.5 mph - N/A   Despejado
6:00 AM 71 ° F - 66 ° F 81% 30.05 pul 7 mi Norte 6.9 mph - -  
6:00 AM 71.6 ° F - 66.2 ° F 83% 30.04 pul - NNO 3.5 mph - N/A   Despejado
6:30 AM 69.8 ° F - 66.2 ° F 88% 30.04 pul - Norte 4.6 mph - N/A   Despejado
7:00 AM 71 ° F - 65 ° F 78% 30.06 pul 7 mi Norte 9.2 mph - -  
7:00 AM 69.8 ° F - 66.2 ° F 88% 30.04 pul 6.2 mi NNO 4.6 mph - N/A   Nubes dispersas
7:30 AM 69.8 ° F - 66.2 ° F 88% 30.06 pul 6.2 mi NNO 6.9 mph 18.4 mph N/A   Nubes dispersas
8:00 AM 70 ° F - 65 ° F 79% 30.07 pul 6 mi Norte 10.4 mph - -   Parcialmente nublado
8:00 AM 69.8 ° F - 66.2 ° F 88% 30.06 pul 6.2 mi NNO 8.1 mph - N/A   Nubes dispersas
8:30 AM 69.8 ° F - 66.2 ° F 88% 30.06 pul 6.2 mi NO 9.2 mph - N/A   Nubes dispersas
9:00 AM 72 ° F - 66 ° F 77% 30.08 pul 4 mi Norte 10.4 mph - -   Neblina
9:00 AM 71.6 ° F - 66.2 ° F 83% 30.06 pul 6.2 mi NNO 9.2 mph 23.0 mph N/A   Parcialmente nublado
9:30 AM 73.4 ° F - 66.2 ° F 78% 30.06 pul 6.2 mi NNO 9.2 mph 20.7 mph N/A   Parcialmente nublado
10:00 AM 76 ° F - 66 ° F 65% 30.09 pul 7 mi Norte 8.1 mph - -   Neblina
10:00 AM 73.4 ° F - 66.2 ° F 78% 30.06 pul 6.2 mi NO 8.1 mph - N/A   Parcialmente nublado
10:30 AM 75.2 ° F - 68.0 ° F 78% 30.09 pul 6.2 mi NO 4.6 mph - N/A   Parcialmente nublado
11:00 AM 79 ° F - 68 ° F 61% 30.10 pul 6 mi ENE 5.8 mph - -   Nubes dispersas
11:00 AM 77.0 ° F - 68.0 ° F 74% 30.09 pul 6.2 mi Este 6.9 mph - N/A   Parcialmente nublado
11:30 AM 77.0 ° F - 68.0 ° F 74% 30.09 pul 6.2 mi Este 8.1 mph - N/A   Parcialmente nublado
12:00 PM 81 ° F - 67 ° F 54% 30.11 pul 19 mi SE 8.1 mph - -  
12:00 PM 78.8 ° F - 68.0 ° F 69% 30.09 pul 6.2 mi Este 6.9 mph - N/A   Parcialmente nublado
12:30 PM 78.8 ° F - 69.8 ° F 74% 30.09 pul 6.2 mi Este 6.9 mph - N/A   Parcialmente nublado
1:00 PM 81 ° F - 69 ° F 58% 30.10 pul 14 mi SE 9.2 mph - -  
1:00 PM 78.8 ° F - 69.8 ° F 74% 30.09 pul 6.2 mi ESE 8.1 mph - N/A   Parcialmente nublado
1:30 PM 78.8 ° F - 69.8 ° F 74% 30.09 pul 6.2 mi Este 9.2 mph - N/A   Parcialmente nublado
2:00 PM 81 ° F - 69 ° F 58% 30.09 pul 19 mi SE 9.2 mph - -   Nubes dispersas
2:00 PM 78.8 ° F - 69.8 ° F 74% 30.09 pul 6.2 mi SE 8.1 mph - N/A   Parcialmente nublado
2:30 PM 80.6 ° F 83.9 ° F 69.8 ° F 70% 30.06 pul 6.2 mi SE 8.1 mph - N/A   Parcialmente nublado
3:00 PM 82 ° F - 69 ° F 55% 30.08 pul 16 mi Sur 8.1 mph - -  
3:00 PM 80.6 ° F 83.9 ° F 69.8 ° F 70% 30.06 pul 6.2 mi SSE 6.9 mph - N/A   Parcialmente nublado
3:30 PM 80.6 ° F 83.2 ° F 68.0 ° F 65% 30.06 pul 6.2 mi Sur 8.1 mph - N/A   Parcialmente nublado
4:00 PM 83 ° F - 65 ° F 44% 30.06 pul 9 mi SSO 9.2 mph - -  
4:00 PM 80.6 ° F 82.7 ° F 66.2 ° F 61% 30.06 pul 6.2 mi SSO 9.2 mph - N/A   Parcialmente nublado
4:30 PM 80.6 ° F 81.5 ° F 60.8 ° F 51% 30.06 pul - SSO 10.4 mph - N/A   Despejado
5:00 PM 80.6 ° F 82.3 ° F 64.4 ° F 58% 30.06 pul - SO 11.5 mph - N/A   Despejado
5:30 PM 78.8 ° F - 64.4 ° F 61% 30.06 pul - SO 12.7 mph - N/A   Despejado
6:00 PM 81 ° F - 64 ° F 46% 30.07 pul 19 mi SO 12.7 mph - -  
6:00 PM 78.8 ° F - 64.4 ° F 61% 30.06 pul - SO 11.5 mph - N/A   Despejado
6:30 PM 78.8 ° F - 66.2 ° F 65% 30.06 pul - SO 13.8 mph - N/A   Despejado
7:00 PM 80 ° F - 66 ° F 54% 30.07 pul 19 mi OSO 11.5 mph - -  
7:00 PM 78.8 ° F - 66.2 ° F 65% 30.06 pul - SO 12.7 mph - N/A   Despejado
7:30 PM 77.0 ° F - 68.0 ° F 74% 30.06 pul - SO 12.7 mph - N/A   Despejado
8:00 PM 78 ° F - 68 ° F 63% 30.07 pul 19 mi OSO 9.2 mph - -   Nubes dispersas
8:00 PM 77.0 ° F - 68.0 ° F 74% 30.06 pul 6.2 mi SO 12.7 mph - N/A   Parcialmente nublado
8:30 PM 77.0 ° F - 68.0 ° F 74% 30.06 pul 6.2 mi SO 9.2 mph - N/A   Parcialmente nublado
9:00 PM 77 ° F - 69 ° F 68% 30.08 pul 16 mi Oeste 6.9 mph - -  
9:00 PM 75.2 ° F - 69.8 ° F 83% 30.06 pul 6.2 mi OSO 9.2 mph - N/A   Parcialmente nublado
9:30 PM 75.2 ° F - 68.0 ° F 78% 30.06 pul 6.2 mi Oeste 9.2 mph - N/A   Parcialmente nublado
10:00 PM 76 ° F - 68 ° F 69% 30.09 pul 17 mi Oeste 3.5 mph - -  
10:00 PM 75.2 ° F - 68.0 ° F 78% 30.09 pul 6.2 mi Oeste 5.8 mph - N/A   Parcialmente nublado
10:30 PM 75.2 ° F - 68.0 ° F 78% 30.09 pul 6.2 mi NO 4.6 mph - N/A   Parcialmente nublado
11:00 PM 76 ° F - 67 ° F 66% 30.10 pul 16 mi Norte 2.3 mph - -   Nubes dispersas
11:00 PM 75.2 ° F - 68.0 ° F 78% 30.09 pul 6.2 mi Variable 1.2 mph - N/A   Parcialmente nublado
11:30 PM 75.2 ° F - 66.2 ° F 73% 30.09 pul 6.2 mi Norte 2.3 mph - N/A   Parcialmente nublado